Weather History for Ocala, FL

Change the Weather History Date:

Sunday, February 3, 2013

  Actual Average Record
Temperature  
Mean Temperature 50 °F -  
Max Temperature 69 °F 67 °F 80 °F (1999)
Min Temperature 32 °F 44 °F 32 °F (2013)
Degree Days  
Heating Degree Days 14    
Moisture  
Dew Point 31 °F    
Average Humidity 60    
Maximum Humidity 87    
Minimum Humidity 17    
Precipitation  
Precipitation 0.00 in - - ()
Sea Level Pressure  
Sea Level Pressure 30.15 in    
Wind  
Wind Speed 2 mph (WNW)    
Max Wind Speed 14 mph    
Max Gust Speed 17 mph    
Visibility 10 miles    
Events      
Averages and records for this station are not official NWS values.
T = Trace of Precipitation, MM = Missing Value Source: NWS Daily Summary

Daily Weather History Graph

Daily Weather History Graph

Search for Another Location

Airport:

Trip Planner

Search our weather history database for the weather conditions in past years. The results will help you decide how hot, cold, wet, or windy it might be!

Date:

Astronomy

Feb. 03, 2013 Rise Set
Actual Time 7:16 AM EST 6:09 PM EST
Civil Twilight 6:51 AM EST 6:34 PM EST
Nautical Twilight 6:23 AM EST 7:02 PM EST
Astronomical Twilight 5:55 AM EST 7:30 PM EST
Moon 12:41 AM EST (2/3) 11:48 AM EST (2/3)
Length of Visible Light 11h 42m
Length of Day
10h 52m
Waning Gibbous, 49% of the Moon is Illuminated
Feb 3
Waning Gibbous
Feb 10
New
Feb 17
First Quarter
Feb 25
Full
Mar 4
Last Quarter

Hourly Weather History & Observations

Time (EST) Temp. Windchill Dew Point Humidity Pressure Visibility Wind Dir Wind Speed Gust Speed Precip Events Conditions
12:15 AM 44.6 °F 42.2 °F 28.4 °F 53% 30.19 in 10.0 mi North 4.6 mph - N/A   Clear
12:35 AM 44.6 °F - 28.4 °F 53% 30.18 in 10.0 mi Calm Calm - N/A   Clear
12:55 AM 42.8 °F - 26.6 °F 53% 30.17 in 10.0 mi Calm Calm - N/A   Clear
1:15 AM 39.2 °F - 26.6 °F 61% 30.17 in 10.0 mi Calm Calm - N/A   Clear
1:35 AM 39.2 °F - 26.6 °F 61% 30.17 in 10.0 mi North - - N/A   Clear
1:55 AM 37.4 °F - 26.6 °F 65% 30.16 in 10.0 mi Calm Calm - N/A   Clear
2:15 AM 37.4 °F - 26.6 °F 65% 30.16 in 10.0 mi Calm Calm - N/A   Clear
2:35 AM 35.6 °F - 26.6 °F 70% 30.15 in 10.0 mi Calm Calm - N/A   Clear
2:55 AM 35.6 °F - 24.8 °F 65% 30.16 in 10.0 mi Calm Calm - N/A   Clear
3:15 AM 33.8 °F - 24.8 °F 70% 30.16 in 10.0 mi Calm Calm - N/A   Clear
3:35 AM 35.6 °F - 26.6 °F 70% 30.16 in 10.0 mi Calm Calm - N/A   Clear
3:55 AM 33.8 °F - 24.8 °F 70% 30.15 in 10.0 mi Calm Calm - N/A   Clear
4:15 AM 33.8 °F - 24.8 °F 70% 30.16 in 10.0 mi Calm Calm - N/A   Clear
4:35 AM 33.8 °F - 24.8 °F 70% 30.16 in 10.0 mi Calm Calm - N/A   Clear
4:55 AM 32.0 °F - 24.8 °F 75% 30.16 in 10.0 mi Calm Calm - N/A   Clear
5:15 AM 32.0 °F - 23.0 °F 69% 30.16 in 10.0 mi Calm Calm - N/A   Clear
5:35 AM 32.0 °F - 24.8 °F 75% 30.17 in 10.0 mi Calm Calm - N/A   Clear
5:55 AM 33.8 °F - 24.8 °F 70% 30.18 in 10.0 mi Calm Calm - N/A   Clear
6:15 AM 32.0 °F - 24.8 °F 75% 30.18 in 10.0 mi Calm Calm - N/A   Clear
6:35 AM 33.8 °F - 26.6 °F 75% 30.19 in 10.0 mi Calm Calm - N/A   Clear
6:50 AM 35.6 °F - 32.0 °F 87% 30.19 in 10.0 mi Calm Calm - N/A   Clear
7:50 AM 37.4 °F - 32.0 °F 81% 30.19 in 10.0 mi Calm Calm - N/A   Clear
8:50 AM 48.2 °F - 42.8 °F 82% 30.20 in 10.0 mi NW 4.6 mph - N/A   Clear
9:50 AM 55.4 °F - 46.4 °F 72% 30.22 in 10.0 mi NNW 11.5 mph - N/A   Clear
10:50 AM 60.8 °F - 42.8 °F 52% 30.21 in 10.0 mi NW 9.2 mph - N/A   Clear
11:50 AM 62.6 °F - 42.8 °F 48% 30.19 in 10.0 mi NW 10.4 mph 16.1 mph N/A   Clear
12:50 PM 66.2 °F - 42.8 °F 43% 30.16 in 10.0 mi NNW 9.2 mph - N/A   Clear
1:50 PM 66.2 °F - 35.6 °F 32% 30.12 in 10.0 mi WNW 13.8 mph 17.3 mph N/A   Partly Cloudy
2:50 PM 68.0 °F - 30.2 °F 24% 30.10 in 10.0 mi NW 8.1 mph 13.8 mph N/A   Partly Cloudy
3:50 PM 69.8 °F - 23.0 °F 17% 30.09 in 10.0 mi WNW 11.5 mph 17.3 mph N/A   Clear
4:50 PM 66.2 °F - 24.8 °F 21% 30.08 in 10.0 mi WNW 11.5 mph - N/A   Clear
5:50 PM 62.6 °F - 35.6 °F 37% 30.09 in 10.0 mi West 6.9 mph - N/A   Clear
6:50 PM 57.2 °F - 33.8 °F 41% 30.10 in 10.0 mi West 5.8 mph - N/A   Clear
7:55 PM 53.6 °F - 35.6 °F 51% 30.12 in 10.0 mi West 5.8 mph - N/A   Clear
8:15 PM 53.6 °F - 35.6 °F 51% 30.13 in 10.0 mi West 4.6 mph - N/A   Clear
8:35 PM 51.8 °F - 35.6 °F 54% 30.13 in 10.0 mi West 4.6 mph - N/A   Clear
8:55 PM 51.8 °F - 35.6 °F 54% 30.13 in 10.0 mi West 3.5 mph - N/A   Clear
9:15 PM 50.0 °F - 33.8 °F 54% 30.14 in 10.0 mi Calm Calm - N/A   Clear
9:35 PM 50.0 °F - 33.8 °F 54% 30.14 in 10.0 mi West 3.5 mph - N/A   Clear
9:55 PM 50.0 °F - 35.6 °F 58% 30.14 in 10.0 mi WSW 3.5 mph - N/A   Clear
10:15 PM 46.4 °F 45.2 °F 33.8 °F 62% 30.15 in 10.0 mi WNW 3.5 mph - N/A   Clear
10:35 PM 46.4 °F - 33.8 °F 62% 30.15 in 10.0 mi Calm Calm - N/A   Clear
10:55 PM 44.6 °F - 33.8 °F 66% 30.15 in 10.0 mi Calm Calm - N/A   Clear
11:15 PM 42.8 °F - 33.8 °F 70% 30.15 in 10.0 mi Calm Calm - N/A   Clear
11:35 PM 42.8 °F - 32.0 °F 66% 30.14 in 10.0 mi Calm Calm - N/A   Clear
11:55 PM 42.8 °F - 33.8 °F 70% 30.13 in 10.0 mi Calm Calm - N/A   Clear